Content
SEND FEEDBACK

Daily
Averages
Monthly
Summary
United States of America

ANN ARBOR, MICHIGAN


Home > North America > United States > Michigan
Elevation: 231 meters     Latitude: 42 17N     Longitude: 083 43W

WEATHER
 
SELECT A DAY
Number of Records: 209,163;   Date Range: 1/1/95 - 12/26/14
 
SHARE

PRINT THIS DATA

[ ← Previous Day ]
WEATHER ALMANAC - 16 JANUARY, 2013
[ Next Day → ]
[ °F ]   °C
Weather ElementAverageHighLow
Temperature-1.7 °C2.8 °C (1:53 pm)-8.3 °C (3:53 am)
Dewpoint-7.6 °C-3.3 °C (11:53 pm)-10 °C (1:53 am)
Humidity67.7 %92 % (2:53 am)39 % (3:53 pm)
Barometer1014.6 hPa1020 hPa (1:53 am)1010.5 hPa (3:53 pm)
Wind Speed15.1 km/h31.5 km/h (3:53 pm)
Wind Gust44.4 km/h (3:53 pm)
Weather ElementAverage
Visibility15.6 km
Wind DirectionS (179.6 °)

Weather ElementTotal
Precipitation---
Heating Degree Days21.1 (Base 18.3)
Averaged from 23 records on 16 January, 2013
WEATHER CONDITIONS BREAKOUT
WIND DIRECTION BREAKOUT
WEATHER BY HOUR - 16 JANUARY, 2013
[ °F ]   °C
Local TimeTemperatureDewpointHumidityBarometerVisibilityWind DirectionWind SpeedGust SpeedPrecipitationEventsConditions
1:53 AM-7.2 °C-10 °C81 %1020 hPa16.1 kmCalmClear
2:53 AM-6.7 °C-7.8 °C92 %1019 hPa16.1 kmCalmClear
3:53 AM-8.3 °C-10 °C88 %1018.6 hPa11.3 kmCalmClear
4:53 AM-8.3 °C-10 °C88 %1017.9 hPa14.5 kmCalmOvercast
5:53 AM-6.1 °C-7.8 °C88 %1016.9 hPa16.1 kmCalmOvercast
6:53 AM-6.7 °C-7.8 °C92 %1016.3 hPa14.5 kmCalmOvercast
7:53 AM-6.1 °C-7.8 °C88 %1015.6 hPa16.1 kmWNW (300°)5.6 km/hOvercast
8:53 AM-7.2 °C-8.3 °C92 %1015.6 hPa14.5 kmCalmPartly Cloudy
9:53 AM-3.3 °C-6.1 °C81 %1014.9 hPa16.1 kmWSW (250°)7.4 km/hClear
10:53 AM-1.1 °C-5.6 °C72 %1014.9 hPa16.1 kmWSW (250°)22.2 km/hClear
11:53 AM0.6 °C-7.8 °C54 %1013.5 hPa16.1 kmWest (260°)22.2 km/hClear
12:53 PM2.2 °C-8.9 °C44 %1011.5 hPa16.1 kmWSW (240°)18.5 km/hClear
1:53 PM2.8 °C-9.4 °C41 %1010.8 hPa16.1 kmWSW (240°)22.2 km/h33.3 km/hClear
3:53 PM2.8 °C-10 °C39 %1010.5 hPa16.1 kmWSW (250°)31.5 km/h44.4 km/hClear
4:53 PM2.2 °C-9.4 °C43 %1011.2 hPa16.1 kmWSW (240°)24.1 km/hOvercast
5:53 PM2.2 °C-8.9 °C44 %1011.2 hPa16.1 kmWSW (250°)22.2 km/h40.7 km/hOvercast
6:53 PM1.7 °C-8.3 °C48 %1012.2 hPa16.1 kmWSW (250°)27.8 km/hOvercast
7:53 PM1.1 °C-7.8 °C52 %1012.9 hPa16.1 kmWest (260°)31.5 km/h38.9 km/hOvercast
8:53 PM1.1 °C-6.1 °C59 %1013.5 hPa16.1 kmWest (260°)27.8 km/h38.9 km/hOvercast
9:53 PM1.1 °C-5 °C64 %1013.9 hPa16.1 kmWest (270°)22.2 km/h40.7 km/hOvercast
10:05 PM1 °C-5 °C65 %1013.2 hPa16.1 kmWest (260°)22.2 km/hOvercast
10:53 PM1.1 °C-3.9 °C70 %1013.9 hPa16.1 kmWest (270°)18.5 km/h33.3 km/hOvercast
11:53 PM1.1 °C-3.3 °C73 %1014.9 hPa16.1 kmWest (280°)20.4 km/hOvercast
Hourly data recorded from KARB, located 0 kilometers away from Ann Arbor, Michigan







STORIES FROM OUR PARTNERS